Regional Weather Roundup
Issued by NWS

Home | Current Version | Previous Version | Text Only | Print | Product List | Glossary Off
Versions: 1 2 3 4 5 6 7 8 9 10 11 12 13 14 15 16 17 18 19 20 21 22 23 24 25 26 27 28

000
ASUS45 KGTF 032210
RWRMT
MONTANA HOURLY WEATHER ROUNDUP
NATIONAL WEATHER SERVICE GREAT FALLS MT
400 PM MDT SUN MAY 03 2015

NOTE: "FAIR" INDICATES FEW OR NO CLOUDS BELOW 12000 FEET WITH NO
SIGNIFICANT WEATHER AND/OR OBSTRUCTIONS TO VISIBILITY.

MTZ001>007-043-032300-
WEST OF THE DIVIDE

CITY           SKY/WX    TMP DP  RH WIND       PRES   REMARKS
KALISPELL      CLEAR     64  22  20 VRB3      29.95F
MISSOULA       SUNNY     67  20  16 N7        29.92F
BUTTE          CLOUDY    63  17  17 CALM      29.95S
DEER LODGE       N/A     64  10  12 N8        29.96F
EUREKA           N/A     64  18  16 S5        29.96F
HAMILTON         N/A     66  16  14 N2        29.90F
LIBBY            N/A     66  21  18 NW7       29.94F
$$

MTZ008-052>055-032300-
SOUTHWEST MONTANA

CITY           SKY/WX    TMP DP  RH WIND       PRES   REMARKS
BOZEMAN        CLOUDY    62  33  33 N5        29.94F
DILLON         CLOUDY    69  24  18 N5        29.91F
$$

MTZ009-010-012-014-046-048-049-054-032300-
EAST SLOPES AND CENTRAL MONTANA

CITY           SKY/WX    TMP DP  RH WIND       PRES   REMARKS
CUT BANK       SUNNY     61  19  19 NW7G21    29.96F
GREAT FALLS    SUNNY     64  25  22 NE8       29.95F
MALMSTROM AFB  SUNNY     61  28  27 E5        29.96F
HELENA         MOSUNNY   68  21  16 E7        29.92F
$$

MTZ011-013-016-021-045-047-050-051-032300-
NORTH CENTRAL MONTANA

CITY           SKY/WX    TMP DP  RH WIND       PRES   REMARKS
HAVRE          SUNNY     63  25  23 VRB5      30.00F
LEWISTOWN      SUNNY     62  30  29 SE7       29.98F
CHINOOK          N/A     61  23  23 N5        30.01F
FORT BENTON      N/A     64  23  20 E3        29.97F
$$

MTZ017>020-022>042-056>058-061-062-032300-
EASTERN PLAINS

CITY           SKY/WX    TMP DP  RH WIND       PRES   REMARKS
BAKER          SUNNY     63  29  27 N12G17    30.04S
BILLINGS       PTSUNNY   62  35  36 E10       29.98F
GLASGOW        MOSUNNY   59  24  26 N5        30.04S
JORDAN           N/A     62  25  24 MISG      30.03F
LIVINGSTON     PTSUNNY   63  30  28 E14       29.96F
MILES CITY     SUNNY     63  30  28 VRB5      30.02F
SIDNEY         SUNNY     64  23  20 W10G16    30.04S
WOLF POINT     SUNNY     65  24  21 N8        30.03F
BIG TIMBER       N/A     57  28  33 E8        29.99F
FORSYTH          N/A     63  30  29 N7        30.00F
PLENTYWOOD       N/A     59  21  23 NW17G26   30.02F
POPLAR           N/A     63  21  20 NW12G18   30.02F
$$

REGIONAL REPORTS...DAKOTAS

CITY           SKY/WX    TMP DP  RH WIND       PRES   REMARKS
WILLISTON      SUNNY     65  20  17 NW15G22   30.02S
MINOT          MOSUNNY   61  23  23 W15G28    29.99R
DICKINSON      PTSUNNY   63  26  24 NW15G21   30.02R
BEACH          MOCLDY    61  25  25 NW14G23   30.05F
CROSBY         FAIR      57  23  26 NW15G25   30.03R
WATFORD CITY   FAIR      63  19  19 W14G21    30.01S
BISMARCK       PTSUNNY   65  15  14 N15G25    30.01S
GRAND FORKS    MOSUNNY   69  26  20 NW18G25   29.90S
FARGO          SUNNY     71  21  15 NW18G24   29.91S
BUFFALO SD       N/A     60  36  40 VRB3      29.97F
RAPID CITY     MOSUNNY   68  37  32 NE16      30.00S
$$

REGIONAL REPORTS...WYOMING/IDAHO/WASHINGTON

CITY           SKY/WX    TMP DP  RH WIND       PRES   REMARKS
GILLETTE       PTSUNNY   67  37  33 NE13G22   29.99F
SHERIDAN       PTSUNNY   64  40  41 VRB5      29.97F
BUFFALO WY     LGT RAIN  61  40  45 E13       29.98F
CODY           PTSUNNY   59  37  44 N14       29.98F
YELLOWSTONE LA   N/A     53  27  36 VRB5      30.05S
IDAHO FALLS    PTSUNNY   65  39  38 NW8       29.92R
SALMON         PTSUNNY   72  30  21 N13       29.85F
BOISE          SUNNY     77  28  16 NW10      29.82F
SPOKANE        MOSUNNY   68  23  18 NE8       29.94F
$$

REGIONAL REPORTS...ALBERTA

CITY           SKY/WX    TMP DP  RH WIND       PRES   REMARKS
EDMONTON       PTSUNNY   50  30  46 SE6       30.01S
CALGARY        MOSUNNY   54  19  26 SE3G20    29.99F
LETHBRIDGE     MOSUNNY   57  28  33 VRB8      30.01F
MEDICINE HAT   MOSUNNY   57  30  35 N9        30.04F
$$

REGIONAL REPORTS...SASKATCHEWAN

CITY           SKY/WX    TMP DP  RH WIND       PRES   REMARKS
SWIFT CURRENT  CLOUDY    55  23  28 NW16G24   30.03S
REGINA         MOSUNNY   57  25  28 NW13      30.03S
SASKATOON      PTSUNNY   55  27  33 W15       30.03R
$$



USA.gov is the U.S. government's official web portal to all federal, state and local government web resources and services.